Weather Roundup
Issued by NWS

Home | Current Version | Previous Version | Text Only | Print | Product List | Glossary On
Versions: 1 2 3 4 5 6 7 8 9 10 11 12 13 14 15 16 17 18 19 20 21 22 23 24 25 26 27 28 29 30 31 32 33 34 35 36 37 38 39 40 41 42 43 44 45 46 47 48 49 50
401
NZUS93 KARX 231410
HRRWXR

CURRENT HOURLY OBSERVATIONS ACROSS
MUCH OF THE UPPER MISSISSIPPI VALLEY
NATIONAL WEATHER SERVICE LA CROSSE WI
900 AM CDT MON APR 23 2018


...SOUTHEAST MINNESOTA...


CITY           SKY/WX    TMP DP  RH WIND       PRES   REMARKS
ROCHESTER      FAIR      47  35  63 SE6       30.27S
ROCHESTER/MAYO FAIR      48  29  47 SE5       30.27S
WINONA         FAIR      46  36  66 CALM      30.26F
AUSTIN         FAIR      48  37  66 CALM      30.25S
ALBERT LEA     FAIR      48  30  49 SE3       30.25F
DODGE CENTER   FAIR      48  36  61 SE5       30.26S
PRESTON        FAIR      40  29  65 CALM      30.27F
OWATONNA       FAIR      52  36  54 S6        30.25S
FARIBAULT      NOT AVBL
$$

...ELSEWHERE IN MINNESOTA...


CITY           SKY/WX    TMP DP  RH WIND       PRES   REMARKS
MINNEAPOLIS    FAIR      51  34  52 S5        30.25F
INTNL FALLS    FAIR      51  37  58 W9        30.14S
DULUTH         FAIR      54  40  59 W13       30.22S
RED WING       FAIR      48  30  49 SE5       30.26F
REDWOOD FALLS  SUNNY     44  41  89 SE6       30.23F
MANKATO        FAIR      48  34  58 S8        30.25S
WORTHINGTON    MOSUNNY   47  38  71 S5        30.24S
FAIRMONT       SUNNY     41  36  82 S3        30.25S
$$

...SOUTHWEST WISCONSIN...


CITY           SKY/WX    TMP DP  RH WIND       PRES   REMARKS
LA CROSSE      FAIR      49  36  61 NW5       30.28S
PRAIRIE DU CHI FAIR      49  33  54 CALM      30.26F
BOSCOBEL       FAIR      51  30  44 NE7       30.27F
LONE ROCK      FAIR      41  35  79 CALM      30.27F
PLATTEVILLE    FAIR      51  29  42 E10       30.24F
FORT MC COY    FAIR      49  31  51 CALM      30.28F
MAUSTON-NEW LI FAIR      44  34  67 CALM      30.28S
VIROQUA        FAIR      51  30  44 SE8       30.26F
WIS DELLS      FAIR      44  29  56 CALM      30.27F
$$

...ELSEWHERE IN WISCONSIN...


CITY           SKY/WX    TMP DP  RH WIND       PRES   REMARKS
MILWAUKEE      PTSUNNY   50  32  50 NE6       30.26F
MADISON        PTSUNNY   48  31  51 N3        30.25F
GREEN BAY      FAIR      47  28  47 CALM      30.30F
EAU CLAIRE     FAIR      50  29  44 CALM      30.27F
BLACK RVR FLS  FAIR      48  28  46 CALM      30.28F
MEDFORD        FAIR      45  27  49 S5        30.28S
WAUSAU         FAIR      47  28  47 CALM      30.28S
WIS RAPIDS     FAIR      52  23  32 SE5       30.29F
MARSHFIELD     FAIR      46  28  49 SE6       30.27F
RICE LAKE      FAIR      46  28  50 SE5       30.28F
$$

...NORTHEAST IOWA...


CITY           SKY/WX    TMP DP  RH WIND       PRES   REMARKS
WATERLOO       FAIR      51  32  48 E8        30.24S
DUBUQUE        FAIR      50  28  42 NE9       30.23F
DECORAH        FAIR      46  32  57 CALM      30.25S
MASON CITY     SUNNY     47  36  65 E3        30.26S
CHARLES CITY   CLOUDY    46  34  61 NE6       30.25F
OELWEIN        FAIR      52  30  43 E8        30.24F
$$

...ELSEWHERE IN IOWA...


CITY           SKY/WX    TMP DP  RH WIND       PRES   REMARKS
DES MOINES     CLOUDY    53  31  42 NE7       30.21S
IOWA CITY      FAIR      55  26  32 NE12      30.21F
FORT DODGE     SUNNY     51  39  63 E8        30.24S
MARSHALLTOWN   CLOUDY    50  35  56 E8        30.22S
CEDAR RAPIDS   FAIR      55  28  35 NE9       30.20F
$$

...NORTHERN ILLINOIS...


CITY           SKY/WX    TMP DP  RH WIND       PRES   REMARKS
CHICAGO-OHARE  CLOUDY    49  28  44 N14       30.20F
CHICAGO-MIDWAY CLOUDY    50  28  42 NE12      30.20F
MOLINE         FAIR      53  26  35 E12       30.18F
ROCKFORD       CLOUDY    52  25  35 E13       30.24F
PEORIA         FAIR      52  30  43 NE15      30.12F
$$

NOTE: "FAIR" INDICATES FEW OR NO CLOUDS BELOW 12,000 FEET WITH NO
SIGNIFICANT WEATHER AND/OR OBSTRUCTIONS TO VISIBILITY. WIND
SPEEDS ARE IN MILES-PER-HOUR.




USA.gov is the U.S. government's official web portal to all federal, state and local government web resources and services.